Tracking 30995 objects as of 7-Jul-2025
HD Live streaming from Space Station
objects crossing your sky now

DELTA 1 DEB

Track DELTA 1 DEB now!
10-day predictions


NORAD ID: 21351
Int'l Code: 1975-052BV
Perigee: 1,098.1 km
Apogee: 1,197.6 km
Inclination: 99.8 °
Period: 108.1 minutes
Semi major axis: 7518 km
RCS: 0.1445 m2 (medium)
Launch date: June 12, 1975
Source: United States (US)
Launch site: AIR FORCE WESTERN TEST RANGE (AFWTR)

Note: This is SATELLITE DEBRIS
Your satellite tracking list
SIRIUS 3
Track 1 satellite(s)




NASA's NSSDC Master Catalog

Two Line Element Set (TLE):
1 21351U 75052BV  25187.32073343 -.00000003  00000-0  80670-4 0  9998
2 21351  99.8011 322.2886 0066122  66.4656 323.5581 13.31604930658177
Source of the keplerian elements: AFSPC